Theta_e
363 364 364 363 365 364 364 365 365 365 365 365 365 364 363 362 363 363 366 365 366 364 363 365 367 367 365 364 364 367 368 367 368 368 367 366 365 365 365 366 364 361 360 357 355 355 355 352 351 353 353 349 349 350 350 353 351 352 352 351 348 349 347 344 340 339 347 354 352 347 343 346 344 349 348 346 351 346 350 349 355 349 348 348 346
364 363 364 363 362 364 363 364 365 364 363 364 363 364 365 365 365 365 364 366 367 365 364 363 366 368 368 367 367 368 369 369 367 368 366 365 364 364 364 365 364 362 360 358 356 355 355 354 352 352 352 350 349 347 348 346 348 346 347 347 345 346 348 344 342 341 339 346 349 352 353 347 344 345 347 343 349 348 346 347 352 348 347 347 346
364 365 364 364 363 363 364 364 364 363 361 361 361 360 363 365 366 365 363 363 366 365 366 364 365 367 368 369 369 368 369 368 367 367 367 366 364 361 361 364 363 362 360 359 357 356 355 354 353 351 352 350 349 348 347 347 345 345 345 344 344 345 347 347 344 340 339 342 348 346 344 348 348 345 345 348 349 351 346 345 343 346 348 348 345
363 365 364 363 363 363 363 364 363 363 361 363 361 361 360 362 365 364 363 362 363 365 366 366 367 367 367 368 369 368 368 368 366 366 367 367 365 363 362 362 363 362 361 359 358 357 354 354 352 351 350 350 349 349 349 348 348 348 346 345 345 345 347 347 346 344 342 338 345 343 346 342 346 350 346 348 344 346 348 348 346 343 343 346 344
364 364 363 361 361 362 362 363 363 362 362 361 361 360 359 362 364 363 361 360 362 365 365 368 369 368 366 367 369 369 367 368 367 365 366 367 366 364 363 363 362 362 361 360 360 358 356 354 354 353 351 349 350 348 348 348 347 348 347 347 345 346 347 348 346 345 344 342 342 346 350 349 348 347 347 345 345 345 347 346 346 345 346 345 345
365 364 363 361 361 362 363 361 360 362 363 359 360 360 360 360 363 365 365 361 362 363 366 366 368 369 368 367 369 370 369 369 368 366 365 366 366 365 364 363 362 363 361 360 360 359 358 356 355 354 352 349 349 349 348 347 347 345 346 347 346 346 346 347 349 345 343 343 343 344 347 346 346 347 345 344 344 341 342 345 346 346 347 344 342
365 363 364 362 362 363 363 362 362 363 363 361 361 360 358 359 361 362 364 363 362 359 364 366 366 369 370 369 368 369 369 369 368 368 367 367 367 366 364 363 362 362 362 361 360 360 359 358 357 356 354 352 350 349 348 347 347 345 346 347 346 345 344 344 347 347 343 341 342 342 343 346 346 345 347 347 343 344 341 339 340 343 345 345 344
365 365 365 364 363 364 364 364 363 363 363 364 363 361 360 360 361 364 367 365 362 361 359 364 368 368 370 370 369 369 369 369 369 369 369 368 367 366 365 364 362 361 362 362 361 360 359 359 358 358 357 355 352 351 350 348 347 346 346 347 347 345 343 343 343 343 344 343 341 340 339 341 345 345 350 346 343 341 343 342 337 339 341 344 344
365 365 366 366 365 365 366 366 365 364 364 365 363 362 362 362 363 364 365 365 364 363 361 359 365 367 368 370 370 369 368 368 368 369 369 368 367 366 366 364 362 361 361 362 362 362 361 359 359 358 359 355 348 348 348 346 348 345 347 347 346 345 344 343 343 341 341 342 342 343 341 337 340 343 340 341 338 338 342 341 340 343 343 343 345
365 364 365 367 368 368 367 367 366 366 365 365 364 363 363 364 363 363 362 364 365 366 365 363 360 366 366 369 371 370 368 368 357 345 351 366 367 365 366 365 364 362 361 361 361 362 361 361 360 352 347 344 344 342 342 342 342 346 348 348 346 345 344 342 342 342 341 340 340 341 339 338 336 340 341 341 344 344 343 343 338 340 343 342 344
365 364 365 369 369 369 368 368 368 366 366 366 367 365 364 364 364 363 362 362 364 368 367 365 360 361 366 367 369 370 369 367 344 337 340 345 362 365 364 365 365 363 361 361 361 361 361 361 361 356 348 343 346 339 340 341 341 341 345 345 345 347 345 343 342 343 341 340 341 340 339 338 338 339 340 342 343 343 341 343 342 340 338 335 333
365 366 367 370 370 370 369 369 369 368 367 366 367 367 366 364 364 364 363 362 363 366 367 366 365 361 364 367 368 369 369 350 337 335 337 338 346 365 365 365 365 363 362 362 362 362 361 361 361 361 359 357 355 350 342 338 339 339 341 344 343 343 344 346 343 342 343 341 340 340 340 340 340 339 339 340 341 342 343 342 341 340 338 337 336
367 367 367 370 371 371 371 370 369 369 368 367 367 368 367 365 364 364 363 364 364 364 367 367 366 364 363 366 367 369 370 346 334 332 334 335 337 351 365 364 363 363 362 361 361 361 361 360 360 360 360 344 351 356 351 347 337 336 337 341 343 340 337 339 344 347 346 344 341 341 341 342 341 341 342 341 344 341 341 340 340 340 340 339 339
369 367 368 370 371 372 372 372 370 369 370 369 368 368 368 367 366 366 366 366 365 364 365 367 367 366 365 365 367 368 369 347 330 329 330 332 334 342 365 364 363 363 363 361 360 360 361 360 358 358 359 358 356 357 355 352 349 346 345 346 349 348 339 336 337 342 347 347 345 342 344 346 343 344 346 345 344 341 340 338 340 339 339 339 343
366 369 367 369 372 372 373 374 372 371 371 371 370 368 369 369 369 367 366 365 365 365 365 366 367 367 367 366 366 368 367 341 327 326 327 328 331 335 363 365 364 364 364 364 363 361 361 362 360 358 358 359 359 355 356 354 352 349 347 347 349 351 350 347 346 347 348 349 349 347 347 348 347 348 350 349 345 347 345 342 342 342 344 346 346
364 370 368 368 370 372 373 374 374 373 372 371 370 369 369 370 369 368 365 364 366 368 368 367 366 368 369 367 364 364 365 336 326 325 325 326 329 344 359 363 363 364 364 364 364 363 362 362 361 360 358 359 348 336 346 356 354 350 348 348 348 349 351 345 341 343 349 350 351 351 350 351 344 350 350 350 349 349 349 348 347 345 342 340 337
363 367 368 368 369 372 373 374 374 373 373 371 369 369 369 371 371 371 366 364 364 365 365 365 366 367 367 367 366 364 364 342 322 322 323 324 328 350 358 361 362 362 363 365 365 364 364 363 362 361 360 359 346 331 334 342 355 352 349 348 348 348 348 351 338 333 335 334 334 336 337 337 331 330 330 333 346 345 343 339 338 340 338 335 335
364 366 369 369 369 371 374 375 374 373 373 372 370 370 370 371 371 371 367 364 362 363 365 365 366 367 366 366 366 366 366 347 318 319 320 321 331 353 358 360 361 361 361 363 365 365 364 350 360 362 361 361 338 327 329 340 355 354 351 349 347 347 347 349 350 344 330 331 331 332 332 330 330 330 331 330 332 339 342 336 339 338 336 335 332
364 364 368 370 370 371 374 375 375 373 373 373 373 371 370 371 372 373 369 367 364 366 366 366 367 368 366 365 354 361 366 351 317 318 317 319 330 355 360 360 360 360 360 360 363 365 366 356 346 351 355 354 333 325 326 337 355 355 353 350 347 346 347 349 349 347 344 341 341 340 340 334 339 342 341 333 337 347 344 342 340 337 333 334 334
367 367 368 370 370 371 373 375 375 374 373 374 373 373 373 371 371 371 370 368 366 365 364 365 366 367 367 367 365 365 366 367 341 315 316 316 320 353 361 360 359 360 361 360 360 361 363 365 353 331 332 335 328 321 322 326 351 356 355 351 348 346 350 349 349 349 345 343 343 343 343 342 342 343 345 341 342 347 345 344 342 339 337 334 333
370 369 369 368 370 371 372 374 373 373 374 374 373 372 371 370 369 370 367 367 367 367 365 364 363 366 366 367 366 367 367 367 353 314 314 315 317 329 361 362 362 361 361 359 360 359 360 361 363 337 326 326 324 318 318 320 333 355 355 353 351 349 346 349 348 344 346 344 342 343 342 342 342 342 343 340 340 343 343 343 342 340 338 334 332
373 372 371 369 370 371 370 373 374 371 373 375 374 372 372 372 370 370 367 368 369 368 368 366 364 363 365 366 368 368 365 349 369 319 315 313 315 317 349 362 361 363 361 360 361 360 360 361 363 346 324 323 322 316 315 318 323 349 354 337 335 334 348 350 350 347 347 343 342 341 340 340 339 340 341 341 340 340 342 341 341 341 341 339 337
374 373 373 370 370 371 372 373 371 369 371 374 374 372 373 371 371 371 370 369 370 368 368 368 366 365 367 369 370 372 374 370 344 340 315 313 313 314 323 344 340 360 361 360 360 360 362 362 360 343 323 319 318 317 314 315 318 336 331 328 329 328 338 349 348 347 346 342 341 340 338 339 338 338 338 340 340 340 340 340 340 340 341 340 340
376 372 371 371 371 371 372 371 373 372 373 374 373 373 372 371 372 372 371 370 369 368 368 368 367 364 363 365 368 374 383 375 347 328 324 311 312 312 315 321 331 353 361 361 361 362 362 362 357 337 319 312 314 317 315 315 326 321 323 325 326 327 345 348 346 346 344 341 339 339 339 339 339 338 338 339 341 340 340 340 340 340 340 340 342
374 372 369 371 372 371 372 372 373 373 374 374 372 371 372 371 370 373 372 369 368 367 369 368 367 366 366 365 367 370 372 377 372 335 320 313 312 311 313 316 319 323 349 359 359 361 345 334 331 327 323 312 314 316 316 315 316 320 320 323 329 339 345 348 347 346 343 341 339 340 340 339 340 339 341 340 341 341 339 339 340 340 340 340 340
370 371 370 370 370 369 369 367 373 373 373 372 372 372 370 369 368 371 370 367 367 367 367 364 363 364 364 364 365 366 370 372 371 362 329 320 314 311 311 312 314 316 322 343 334 334 331 327 323 322 320 317 324 327 329 328 318 319 321 323 336 342 345 347 347 344 342 341 340 339 340 341 340 341 341 341 339 338 337 336 336 335 336 336 334
371 372 372 370 370 369 367 362 363 366 370 365 368 369 368 367 367 366 366 363 363 363 362 361 360 359 361 366 365 367 365 369 370 355 348 342 339 333 328 327 316 315 326 330 327 335 338 335 338 331 332 323 322 323 325 326 325 322 326 329 337 344 346 347 347 346 343 342 340 340 341 342 342 340 339 338 336 337 338 335 333 332 333 333 329
368 369 369 369 367 368 368 367 365 361 363 363 360 362 363 362 363 367 363 362 361 360 360 358 359 358 359 361 367 365 364 353 332 332 331 332 336 341 343 338 336 336 334 336 337 338 341 331 333 342 343 337 330 331 332 335 334 330 329 332 337 341 341 338 341 347 346 345 343 342 341 340 338 338 338 337 336 336 336 333 331 330 330 330 326
370 368 366 368 369 372 369 370 364 362 356 344 338 336 345 363 353 345 341 347 354 361 363 358 362 364 352 350 351 350 348 338 330 315 323 314 322 323 325 327 326 334 330 314 328 337 339 341 341 343 343 339 338 336 336 336 337 336 334 336 338 341 343 344 343 344 345 343 341 340 339 339 337 337 336 335 335 334 333 331 331 329 328 328 325
365 365 368 369 370 371 369 368 368 361 350 343 338 335 323 312 336 341 332 320 313 315 322 341 346 350 340 337 339 336 332 332 311 303 302 302 303 305 308 307 304 309 308 306 312 323 332 337 340 341 342 342 341 339 339 338 338 338 336 329 336 339 341 342 343 343 343 342 341 338 338 337 336 335 335 333 333 333 331 328 329 328 326 325 324
359 359 359 359 359 364 363 363 367 364 355 350 342 336 335 330 306 307 317 318 310 304 302 305 311 319 340 340 335 317 317 312 307 304 301 302 300 301 300 299 298 298 300 312 322 326 330 333 336 340 341 343 342 341 340 340 339 339 338 336 337 337 336 341 342 341 340 340 339 338 336 335 334 334 333 331 331 331 330 329 329 327 325 325 323
356 355 355 356 359 360 360 361 359 358 359 351 345 339 337 337 334 314 305 308 307 303 303 304 305 307 312 322 335 341 324 316 304 302 302 301 302 301 301 299 298 296 296 299 314 319 324 329 333 336 339 340 341 341 341 341 341 341 339 336 336 337 338 339 340 342 340 339 336 335 334 334 334 333 332 330 328 329 328 327 327 326 325 324 323
354 354 354 354 351 351 350 354 353 355 354 355 346 341 335 333 334 336 333 309 302 301 301 301 301 303 303 303 308 313 314 307 303 303 302 301 300 299 298 300 300 297 296 308 316 319 321 324 326 330 334 336 339 341 341 340 340 340 341 339 337 337 339 340 336 341 338 336 335 334 334 333 332 330 328 328 328 328 326 324 325 325 324 323 322
352 352 352 352 353 352 351 351 350 351 352 353 349 348 344 340 337 336 336 336 336 322 306 300 299 302 305 308 313 309 306 306 305 304 303 303 301 300 298 307 301 299 305 321 322 322 324 324 325 327 328 330 333 338 339 339 340 340 340 339 340 340 340 342 341 338 335 333 334 333 332 333 330 330 330 329 329 327 325 324 324 323 322 322 321
348 348 350 349 350 350 349 350 348 350 350 346 343 340 344 346 343 343 344 342 343 347 340 337 316 308 332 320 307 308 310 307 305 304 303 303 302 299 300 325 334 328 312 314 319 322 323 324 324 326 326 327 327 330 333 337 339 339 339 340 340 340 341 339 339 338 335 334 335 333 331 331 331 330 328 327 326 324 324 324 324 323 322 321 321
344 343 345 345 346 348 349 350 350 349 348 347 346 343 343 344 340 340 337 341 342 342 339 346 345 326 303 302 303 308 308 309 307 305 303 302 300 304 329 333 333 332 332 333 332 329 326 326 326 325 326 326 327 327 329 330 335 338 340 340 338 339 339 339 336 336 335 335 334 332 328 331 331 328 328 326 326 325 324 323 323 323 322 322 321
345 344 342 343 342 341 343 346 349 351 341 344 345 348 344 340 340 340 342 341 341 341 348 345 345 346 324 337 321 314 315 312 309 307 304 302 299 314 329 333 333 334 333 334 333 332 332 332 332 330 328 327 327 327 327 328 330 334 331 338 340 339 338 338 337 334 334 334 333 331 330 331 330 328 326 324 324 324 324 323 323 321 321 321 319
344 343 344 346 344 345 345 346 342 339 350 344 351 348 342 345 344 343 342 344 342 340 342 340 335 343 340 343 342 338 332 320 315 315 319 317 323 339 338 335 333 332 332 333 333 332 332 333 332 331 330 330 329 328 328 328 329 330 332 335 337 338 330 335 332 334 333 333 332 331 329 329 328 327 323 323 322 323 323 322 322 321 320 319 320
342 334 330 332 336 345 342 342 342 342 344 343 341 341 339 337 340 340 345 341 343 340 339 341 340 340 341 341 342 338 334 335 333 334 336 336 337 336 336 334 332 332 333 333 332 331 332 331 331 332 332 331 329 329 329 328 329 329 329 330 333 335 335 334 333 333 332 332 330 330 329 327 326 325 324 323 322 323 323 323 322 322 321 320 320
341 341 336 332 338 340 341 344 341 340 338 341 337 340 340 339 339 339 340 339 339 339 339 339 340 340 340 341 336 337 333 332 332 334 333 333 333 335 335 333 333 332 332 332 331 331 331 331 332 332 332 333 333 333 333 331 330 330 329 329 330 331 334 334 332 332 331 330 329 328 326 325 324 324 324 323 323 324 323 323 323 323 322 321 320
340 340 341 335 334 342 341 339 339 340 341 341 341 340 339 339 340 339 339 336 335 336 336 338 340 343 336 323 312 319 335 334 335 333 332 333 333 333 333 334 333 332 332 331 331 331 331 331 331 331 330 330 329 329 330 332 332 331 331 330 329 329 332 330 329 328 328 328 326 325 324 323 323 323 322 323 319 321 323 323 322 322 321 321 320
340 339 340 338 338 339 338 338 338 341 341 341 340 337 338 337 337 337 336 336 335 335 335 336 340 339 319 302 306 303 330 335 335 334 333 333 332 333 333 333 334 333 332 332 333 332 331 331 331 330 330 329 329 327 328 328 326 326 327 328 327 325 325 327 326 325 325 324 324 324 323 323 323 323 323 318 324 324 323 323 323 322 321 318 316
339 337 338 337 335 335 334 334 336 335 336 336 335 336 336 336 335 336 335 335 335 334 334 334 335 336 334 318 325 313 335 335 335 333 333 332 332 332 332 332 332 333 333 333 333 333 332 331 331 331 330 329 329 328 327 326 326 325 324 324 324 323 323 323 324 324 324 324 324 323 323 323 323 324 324 323 324 323 323 322 321 319 317 315 314
335 334 333 333 333 332 332 333 332 332 331 333 332 331 331 331 331 331 330 330 330 331 332 332 333 333 334 333 331 334 333 332 333 332 331 331 331 330 331 331 331 332 332 333 332 333 332 331 329 329 330 330 330 329 328 327 327 325 324 323 322 321 323 323 323 323 323 323 322 323 323 323 323 323 322 322 322 320 321 319 318 316 315 314 314
331 331 330 329 330 330 329 331 330 329 328 328 328 327 327 327 326 326 326 327 326 327 328 329 329 330 331 332 333 331 331 330 329 329 329 330 330 330 329 329 330 331 331 331 332 331 330 329 328 328 327 329 329 328 328 327 327 327 326 325 324 323 323 323 324 324 324 323 322 321 321 321 320 321 320 320 319 319 316 317 315 315 313 313 313
328 328 328 327 326 326 326 326 326 325 324 324 323 322 322 322 323 323 323 323 323 323 325 326 326 326 327 328 329 328 328 328 328 328 328 329 328 328 328 329 329 330 331 331 331 330 329 328 328 328 328 328 327 326 325 326 326 326 326 325 325 324 324 324 325 324 323 322 321 321 320 319 319 319 319 317 316 316 316 316 315 314 314 313 313
326 325 325 325 323 323 324 324 323 322 321 320 319 319 318 318 318 318 317 317 317 318 318 319 320 320 323 325 325 326 327 327 327 327 327 328 328 327 328 328 329 330 329 329 329 329 329 329 329 329 328 328 327 326 325 325 325 325 324 324 324 324 324 324 324 323 323 322 321 320 319 318 317 318 318 316 315 315 315 315 314 315 314 313 313
320 320 320 321 320 320 320 321 320 320 318 317 316 316 315 315 315 314 314 314 314 313 313 313 313 313 314 317 320 324 326 326 327 328 328 327 327 327 328 328 328 329 329 328 329 331 330 329 329 330 329 327 326 325 324 323 324 323 323 323 323 322 319 315 323 323 322 322 321 320 319 318 317 316 315 315 315 314 314 314 314 314 314 313 313
318 317 317 316 316 316 316 315 316 315 315 314 313 313 314 313 313 312 311 311 310 310 309 309 309 309 310 311 313 314 317 325 328 328 328 327 327 328 328 327 327 327 327 327 327 328 328 328 327 326 324 324 324 323 321 320 319 318 317 315 310 303 303 308 314 320 314 320 319 319 318 317 316 315 315 315 314 315 315 315 314 313 313 313 313
315 315 314 314 313 313 313 312 311 311 311 311 311 311 311 311 311 310 309 308 307 306 306 306 307 306 306 307 309 310 311 314 318 321 323 324 327 328 327 326 325 325 325 325 325 324 323 322 322 323 323 322 320 319 318 318 316 314 313 308 298 297 297 299 303 306 316 319 318 317 317 317 316 315 315 315 315 315 314 315 314 313 313 312 312
314 313 312 311 311 311 311 310 309 308 308 308 307 307 307 307 308 308 308 306 305 304 304 304 304 304 305 305 307 307 307 309 310 313 315 316 318 324 326 325 325 326 326 325 323 322 321 320 319 318 319 318 317 317 316 315 312 308 300 298 297 297 299 303 310 299 304 310 319 318 317 317 316 315 315 315 315 314 313 314 313 312 312 310 310
Wind_Speed
20 18 17 17 17 18 17 16 16 15 14 14 13 13 12 12 11 11 9 10 10 11 11 10 10 11 12 11 11 11 11 11 10 10 9 10 9 9 8 10 10 9 9 10 10 8 9 8 7 7 6 6 6 5 4 4 5 5 4 5 5 5 5 5 5 5 3 2 2 4 7 8 7 5 6 6 5 7 6 4 5 5 5 5 6
18 18 17 17 19 18 18 17 17 15 16 15 15 14 13 12 11 11 12 11 11 12 12 11 9 11 12 11 11 11 11 11 12 11 11 11 11 9 9 10 11 10 9 10 11 9 8 9 9 8 8 8 7 7 5 5 6 6 6 6 6 6 6 6 6 5 6 4 3 2 2 8 6 7 5 7 5 6 5 4 5 6 6 6 6
18 16 17 17 18 17 17 17 17 17 19 16 18 17 15 13 12 12 12 12 11 11 11 12 11 11 11 11 12 11 11 12 11 11 12 12 13 11 11 11 12 12 11 11 11 10 10 10 10 9 7 9 9 8 7 7 6 7 7 7 7 7 6 7 5 6 6 5 4 3 4 3 3 7 6 5 4 7 6 6 6 6 5 6 5
19 17 17 17 18 18 17 16 20 20 19 16 18 18 16 14 13 13 13 12 11 11 11 12 11 11 12 11 12 12 12 12 13 13 13 13 13 12 12 11 12 13 12 12 11 11 11 10 11 11 9 9 9 9 8 8 7 7 8 7 7 7 6 7 7 6 5 6 4 6 4 6 3 4 7 5 6 6 7 6 6 6 5 6 6
20 19 19 20 19 17 18 18 19 19 19 17 19 18 17 16 13 15 14 14 13 11 12 11 12 12 13 13 12 13 13 12 13 13 12 13 14 13 12 11 12 13 13 12 12 11 11 12 11 11 11 10 10 10 9 10 9 7 8 8 8 7 6 7 9 7 6 6 5 5 4 4 5 5 5 5 6 5 4 5 6 6 6 5 4
19 19 19 20 17 18 17 18 19 20 19 18 19 18 17 16 15 14 15 15 14 13 13 12 12 13 13 13 12 12 12 12 13 13 14 13 13 13 12 12 12 12 13 13 12 12 11 12 11 12 12 12 12 11 11 12 10 10 9 9 8 7 7 6 7 9 8 7 5 4 5 4 4 4 6 6 5 6 5 4 4 4 5 6 6
16 18 19 20 17 18 18 18 17 18 17 16 16 16 16 17 17 16 15 16 16 15 14 14 12 13 13 13 14 13 13 13 12 13 13 12 12 13 13 12 12 11 12 13 14 13 13 12 12 12 13 13 13 13 12 12 12 12 11 10 9 9 9 8 7 8 9 8 7 6 5 5 5 5 5 6 6 5 6 6 6 5 4 5 5
15 16 16 17 16 18 17 17 18 17 15 15 14 15 15 15 14 13 13 15 16 15 15 14 13 13 13 14 13 12 13 13 13 13 13 13 12 13 13 12 13 12 12 13 14 14 14 14 14 14 14 14 14 13 13 13 11 11 11 10 9 10 10 9 8 8 8 8 8 7 7 6 5 5 3 5 5 6 6 5 7 6 6 6 6
15 16 16 16 15 16 15 15 15 15 15 14 15 15 14 13 13 13 12 13 13 15 14 14 13 14 13 14 14 13 13 14 12 13 14 15 13 14 14 14 13 13 13 14 14 14 14 15 15 15 15 17 20 17 16 14 12 12 11 11 10 11 10 9 9 9 8 8 8 7 7 8 7 6 7 7 9 9 5 5 5 5 6 6 6
15 16 16 16 14 14 15 14 14 14 14 14 15 15 14 13 13 13 13 13 12 12 12 12 13 14 14 14 14 13 13 12 15 21 19 15 15 13 13 14 14 13 13 13 14 15 15 15 15 19 19 20 20 20 19 19 18 14 12 12 12 11 11 10 9 9 9 9 9 8 9 9 9 8 8 8 6 5 6 6 7 6 3 5 5
15 16 15 14 13 14 14 14 14 14 14 14 13 14 15 13 13 13 13 13 12 12 12 13 14 13 15 15 16 14 13 13 20 21 22 23 17 14 13 13 14 13 13 13 14 14 14 15 13 16 18 18 19 21 20 20 20 19 18 17 14 13 12 12 10 9 10 10 9 9 10 9 9 8 8 7 8 8 8 6 6 6 6 6 6
16 15 14 13 14 14 14 14 14 15 14 14 14 14 14 14 13 13 13 13 12 11 13 14 13 13 12 15 16 15 14 16 20 21 22 23 20 15 14 13 13 14 14 14 13 13 14 14 14 12 13 16 16 16 19 20 20 19 19 18 18 18 16 13 12 11 11 10 10 11 10 10 9 8 8 9 8 8 8 8 7 7 7 7 6
13 14 15 14 15 14 13 14 15 14 15 14 13 13 14 14 14 13 14 13 11 13 13 14 14 14 13 14 16 16 14 16 19 22 23 23 23 19 13 14 14 15 15 15 14 14 13 13 13 13 11 18 17 16 16 17 19 21 20 19 19 20 19 18 17 14 10 11 12 11 12 9 10 10 10 8 6 9 8 9 9 8 7 7 7
11 14 14 14 14 14 14 14 15 15 14 13 12 13 13 14 14 12 11 11 13 14 14 14 14 14 14 13 13 14 15 15 19 21 22 23 23 20 14 15 15 15 16 16 15 15 15 14 13 12 11 11 13 15 15 16 15 14 14 14 13 17 19 21 20 20 16 12 11 12 11 10 10 9 10 9 8 9 10 10 9 8 8 9 6
10 12 14 13 13 14 14 14 14 13 13 13 13 13 13 12 12 11 12 13 13 13 14 13 13 13 14 14 11 12 14 17 19 22 23 24 24 19 15 14 13 14 15 15 15 16 15 14 14 13 12 11 10 15 15 16 16 16 16 16 17 15 14 14 16 14 14 12 12 12 10 11 11 9 8 9 10 8 9 10 10 8 6 4 3
11 10 13 14 14 13 13 14 13 13 13 13 14 14 13 13 13 12 11 11 10 10 10 11 12 12 12 13 14 14 14 17 20 22 24 24 25 13 15 16 14 13 14 14 14 14 14 14 13 13 13 13 14 19 18 15 15 17 17 17 16 16 15 17 20 18 17 15 12 10 9 11 12 10 9 8 8 7 6 6 6 5 6 6 6
12 11 12 13 14 14 14 14 14 13 13 14 15 14 13 13 12 10 11 11 11 11 11 12 11 12 13 13 15 14 14 14 18 21 23 25 18 9 16 16 15 15 14 12 13 13 13 14 14 13 14 14 15 19 20 18 14 16 16 17 16 15 16 13 17 20 21 20 18 15 11 11 9 8 9 15 10 8 7 7 7 7 6 6 6
12 11 11 12 13 13 13 13 13 13 13 14 14 13 12 11 12 11 12 12 13 13 12 11 11 12 14 14 14 14 13 12 16 18 22 23 21 13 16 16 16 15 15 13 11 11 14 19 18 15 14 14 17 20 21 19 15 15 16 17 17 17 16 14 10 12 19 19 17 16 14 9 9 9 9 12 14 13 10 10 9 7 7 7 6
12 12 10 10 12 12 12 12 13 14 14 13 12 12 12 11 10 9 11 11 12 10 10 10 11 11 14 15 15 16 14 12 15 18 21 21 19 13 15 15 16 16 14 13 13 11 12 13 19 19 16 15 18 20 23 21 17 16 15 16 19 20 18 14 13 13 13 11 11 11 10 8 6 5 5 9 12 13 10 9 8 7 7 7 8
9 9 9 10 11 11 11 11 12 12 13 12 11 11 10 11 12 12 11 10 10 11 10 10 12 12 12 12 13 14 13 12 11 18 19 21 23 16 13 14 16 16 13 13 12 12 13 11 13 19 20 18 18 21 24 27 21 17 15 17 18 20 15 14 16 14 15 18 17 15 15 10 9 7 6 6 7 8 8 8 8 6 5 5 6
8 8 8 9 11 12 11 11 12 12 11 11 11 11 11 11 11 11 12 11 10 10 11 11 11 10 11 12 12 12 11 13 11 19 19 21 22 19 13 15 15 13 12 12 13 13 12 12 10 12 19 19 19 21 23 26 26 19 18 17 19 17 13 13 16 18 14 16 15 13 12 11 11 10 9 8 8 7 7 7 9 10 8 8 7
7 7 8 9 10 11 11 10 11 11 10 10 10 10 9 10 10 11 11 9 10 10 9 8 8 9 9 9 9 9 10 14 11 16 20 21 22 27 17 15 14 13 13 13 12 12 12 9 9 11 17 20 19 18 21 23 27 19 20 22 20 17 16 14 12 12 12 13 13 12 12 12 12 12 11 10 10 9 9 9 10 9 7 5 5
7 7 7 9 9 9 10 11 10 10 9 10 10 9 9 9 8 8 9 9 9 9 9 8 8 8 6 6 6 6 6 7 10 10 17 21 23 24 25 20 18 15 14 14 14 13 10 10 10 12 15 19 21 21 20 22 19 21 24 20 19 18 16 12 11 12 11 12 13 13 13 13 12 13 13 11 11 12 11 9 8 6 5 6 5
6 7 7 8 8 8 9 10 9 8 8 8 9 8 8 7 7 7 8 8 7 7 7 7 7 7 7 6 6 4 3 4 6 12 12 18 18 22 24 24 20 13 15 14 12 11 11 10 9 12 14 18 21 22 20 20 19 27 25 21 18 16 13 13 11 12 12 12 14 14 14 14 13 13 13 12 11 12 11 10 10 12 10 7 4
5 6 6 7 7 7 7 7 8 7 7 7 8 8 8 7 7 6 6 7 6 6 6 6 6 5 5 5 4 4 4 4 4 9 15 18 20 21 23 24 24 21 13 12 11 11 12 15 16 16 16 17 21 22 20 23 27 26 27 26 20 12 14 13 13 13 14 15 16 15 14 15 15 14 12 12 10 11 11 10 10 10 10 10 7
4 4 5 5 6 6 8 9 7 7 6 6 7 7 7 8 7 5 5 5 5 6 5 5 5 6 6 6 6 5 6 3 5 2 2 2 3 7 9 11 14 15 13 14 14 16 17 17 16 16 13 13 13 12 11 15 22 26 28 26 14 15 14 14 13 15 17 16 16 16 15 13 13 13 13 12 12 12 13 11 10 11 11 11 8
4 4 4 5 5 6 7 8 8 7 6 6 6 6 6 8 7 7 6 7 7 6 6 6 6 6 5 4 4 6 5 5 3 9 5 4 4 6 7 8 13 12 10 10 14 13 15 14 12 16 16 14 16 17 18 20 18 16 12 12 18 18 17 16 17 17 16 15 14 14 13 12 11 12 14 14 14 12 14 13 12 12 11 12 10
3 4 5 5 6 5 5 10 9 8 7 5 6 8 8 8 8 9 8 8 8 8 8 7 7 6 5 2 1 2 4 8 8 5 6 5 5 4 0 2 3 4 6 7 8 12 14 14 15 12 10 8 7 5 7 10 15 14 13 16 17 18 20 22 19 15 15 15 14 12 11 12 14 15 14 13 14 12 14 14 13 11 11 11 9
4 5 5 4 5 4 4 4 6 6 8 9 9 7 5 4 9 8 8 5 6 3 5 7 5 3 7 6 4 4 5 7 6 4 5 3 3 2 3 4 4 4 4 8 7 8 9 11 13 14 12 11 11 10 11 13 13 14 16 17 17 17 17 15 17 17 15 14 14 14 14 13 13 12 13 12 12 13 13 13 11 10 11 11 12
7 6 5 5 4 4 4 4 5 7 9 8 9 9 13 14 8 9 7 11 16 15 11 6 5 5 8 6 5 6 6 4 4 9 8 5 4 3 2 3 5 6 9 12 5 5 8 10 11 12 14 14 14 15 15 14 14 13 13 16 16 16 16 17 16 16 14 15 14 13 13 14 14 13 12 13 10 11 13 14 12 12 12 12 11
6 6 7 5 5 5 6 6 5 7 8 8 9 10 8 11 16 15 13 11 14 16 16 17 19 15 9 7 7 10 8 5 7 7 4 4 4 4 5 6 7 8 7 6 4 5 8 10 12 12 13 14 14 16 16 15 16 15 15 16 16 18 18 17 16 15 15 15 15 14 13 14 13 12 13 12 12 11 11 10 11 12 12 12 11
6 5 5 5 5 5 5 5 6 6 6 8 8 9 9 10 8 10 11 11 14 15 16 15 14 14 13 9 5 3 2 2 6 6 7 7 4 1 3 5 7 7 8 3 2 5 7 10 11 12 13 14 16 16 16 17 16 16 16 16 18 18 19 20 19 18 16 15 13 12 12 12 11 12 12 12 12 11 11 11 11 12 11 10 10
5 4 5 7 7 7 6 6 6 5 6 7 8 7 8 8 7 5 4 9 8 11 13 13 13 13 11 8 6 5 1 5 10 12 12 11 11 11 12 3 6 8 8 4 4 5 6 8 10 11 12 15 16 17 17 16 16 16 17 17 19 20 21 22 21 19 15 12 13 14 15 16 15 15 15 15 15 14 13 12 10 9 9 9 9
6 5 5 6 5 5 6 6 6 6 6 6 5 5 5 6 7 8 7 4 4 5 6 4 6 10 7 7 5 4 7 10 12 12 12 13 11 9 6 8 12 8 9 5 4 6 6 7 9 10 12 13 16 17 17 17 16 16 17 19 21 21 23 22 20 18 14 16 19 18 18 18 17 16 15 14 13 12 12 11 10 10 9 10 10
7 10 14 9 6 6 6 6 6 5 6 6 6 5 5 5 5 4 3 5 5 5 5 1 3 2 4 4 5 5 5 8 11 12 12 13 10 6 5 6 7 1 3 5 6 6 8 8 8 10 12 13 15 15 17 17 16 17 19 20 20 20 19 18 19 20 20 20 20 19 19 18 18 16 15 15 14 12 13 12 12 12 11 10 9
8 8 7 9 7 7 6 6 6 5 5 6 5 4 3 3 3 4 3 3 4 3 5 6 4 5 4 5 5 1 2 8 12 14 13 12 5 3 2 5 5 5 7 7 7 7 7 9 10 11 11 13 14 15 16 17 17 17 18 18 18 18 17 16 17 18 20 20 21 20 18 17 17 16 15 16 19 18 15 14 13 12 11 11 10
8 8 8 7 6 7 6 5 4 4 4 4 3 4 4 3 2 3 3 4 4 3 0 4 3 4 2 4 6 5 3 10 13 15 14 10 4 5 3 4 5 7 8 8 8 9 11 12 12 12 13 14 15 14 15 16 17 17 18 19 19 19 18 18 19 20 20 17 16 16 17 17 18 18 19 17 14 13 14 13 12 12 12 12 11
9 7 6 5 7 6 5 5 4 3 3 4 3 3 4 3 3 2 2 4 3 2 3 3 3 3 3 4 6 4 4 7 11 9 5 2 3 2 4 6 7 8 8 9 9 10 12 12 12 13 14 14 15 16 16 16 15 15 16 17 18 19 24 24 23 19 17 16 16 15 15 14 14 14 15 16 15 14 14 13 12 12 11 12 9
7 8 11 12 7 5 5 4 3 0 1 3 3 2 3 2 3 2 0 1 1 2 2 2 3 2 4 4 3 1 2 4 5 6 5 4 4 4 4 5 7 7 8 9 10 10 11 12 13 13 14 14 15 15 15 15 14 15 16 16 18 19 20 15 16 18 20 20 18 19 18 15 13 13 13 14 13 12 13 13 12 13 12 11 10
7 6 7 7 3 4 3 4 4 5 2 3 4 3 2 4 2 1 1 1 1 2 2 2 3 7 4 3 3 3 4 4 5 5 4 5 5 5 5 6 6 7 8 9 9 9 11 12 13 13 13 13 12 13 13 14 14 14 15 16 16 17 15 18 18 17 13 12 17 20 17 17 17 16 15 13 13 13 13 12 12 11 10 11 10
7 6 6 9 9 4 7 7 7 7 6 6 5 4 6 4 4 4 4 4 4 6 6 4 3 4 5 7 5 3 2 4 4 4 4 5 6 6 7 6 6 6 8 8 8 9 10 11 11 12 13 13 14 12 11 11 12 12 14 13 8 10 15 9 3 4 6 14 17 14 14 15 14 16 15 13 13 12 11 11 10 10 10 11 11
7 7 7 7 7 8 8 8 7 7 6 6 6 6 6 5 5 5 5 5 5 5 5 4 4 3 6 9 7 6 2 4 4 5 5 5 6 7 7 7 5 5 7 8 8 8 9 10 10 11 12 12 11 11 11 10 11 12 7 2 9 11 3 15 18 17 18 13 10 16 18 15 14 12 12 12 11 10 9 8 7 8 8 9 9
7 7 7 8 9 9 7 7 6 7 6 7 7 7 7 7 8 8 7 8 8 7 6 6 6 6 1 6 2 4 3 4 6 6 6 5 5 5 6 6 6 6 6 6 6 7 7 8 9 9 10 10 10 9 11 12 12 14 14 13 13 16 15 12 16 18 13 14 15 15 16 14 14 11 10 8 8 8 8 8 9 8 8 9 8
7 8 7 7 8 8 7 7 7 8 8 9 10 9 9 10 10 10 10 9 9 9 8 8 8 8 7 6 5 5 6 6 7 7 7 6 5 5 5 6 6 7 6 6 7 7 6 6 8 9 10 9 9 10 10 10 11 12 13 15 17 18 16 16 17 17 18 17 15 14 13 11 11 10 9 8 6 7 7 8 8 8 8 8 9
8 8 8 9 9 9 9 9 9 9 10 10 10 10 11 10 9 9 8 8 8 8 8 8 8 9 9 8 7 7 7 7 6 7 7 7 6 6 5 5 6 6 6 5 6 7 6 6 6 7 9 9 10 9 8 8 9 8 11 14 14 14 14 13 14 15 15 14 13 12 11 10 9 7 7 6 5 5 7 7 7 7 7 7 8
10 10 10 11 11 10 10 10 10 10 11 10 10 10 10 9 9 9 9 10 10 10 10 10 10 10 9 9 9 7 7 6 6 6 6 6 5 5 5 5 6 5 5 5 5 6 6 6 6 6 6 8 8 8 9 8 7 8 10 10 11 11 10 10 11 12 12 12 11 11 10 9 7 6 6 6 6 6 6 6 6 6 5 6 6
11 10 10 10 10 9 9 9 10 10 10 10 10 10 9 9 9 9 9 11 10 10 10 11 11 11 11 8 8 8 8 6 6 6 6 5 5 5 6 6 5 4 5 5 5 5 6 6 6 6 6 6 7 8 8 8 7 7 8 9 10 11 10 10 10 10 10 10 10 9 9 8 8 7 7 6 5 6 6 6 5 6 5 5 5
12 12 12 11 11 10 10 10 11 11 10 10 9 9 9 9 9 10 10 10 11 11 11 11 11 10 11 11 11 9 8 8 6 5 5 5 5 4 4 4 5 4 4 5 5 6 6 6 5 6 6 8 8 8 8 8 8 8 8 8 8 8 12 12 9 9 8 9 8 9 9 9 8 7 7 6 6 5 5 5 5 5 5 4 5
13 12 12 12 12 12 11 11 10 10 9 9 9 9 10 10 11 11 11 11 11 10 10 10 11 10 10 10 10 11 11 10 8 9 7 5 4 4 4 5 5 5 5 5 6 6 7 6 6 6 7 7 8 8 8 9 9 9 9 8 11 17 16 15 10 9 11 9 7 7 7 7 7 7 7 7 6 5 5 4 5 5 5 4 4
12 12 12 12 12 11 11 11 11 10 10 9 10 10 10 11 11 11 11 10 10 11 10 11 11 11 10 10 11 11 10 11 11 10 11 11 8 4 5 6 7 6 6 6 6 7 7 7 8 8 6 7 8 8 7 7 7 7 7 9 15 16 16 15 14 12 8 5 7 6 6 6 6 6 6 6 6 5 4 4 5 5 4 4 4
11 12 12 12 11 10 10 11 11 11 11 11 11 11 11 10 9 10 10 10 10 10 10 10 10 10 11 10 9 10 11 10 10 10 10 10 11 10 7 7 7 6 7 7 7 7 7 8 9 10 10 9 7 7 7 6 7 7 9 14 15 14 15 12 9 11 12 7 5 6 6 6 6 6 6 5 5 5 5 5 5 4 4 5 3
Wind_Direction
185 185 186 189 185 188 190 191 194 196 197 195 197 198 200 202 199 202 195 199 194 196 200 197 190 190 196 198 197 192 191 190 186 188 192 190 196 196 195 193 199 194 194 194 199 198 197 202 206 197 187 199 213 226 221 177 169 179 194 190 201 196 194 202 212 237 276 250 258 157 182 163 196 196 180 185 168 192 194 181 148 173 174 188 190
189 186 187 188 189 188 190 191 193 195 197 196 198 198 197 199 200 195 199 199 195 197 197 199 196 191 194 193 197 194 189 189 187 186 192 195 197 195 199 190 197 202 197 199 197 202 194 199 204 202 191 198 203 208 220 208 180 184 198 199 197 202 196 194 213 214 233 253 265 267 186 176 182 197 181 187 173 182 189 186 168 184 191 200 189
190 188 190 190 189 188 188 191 191 194 198 197 200 201 200 199 197 199 201 201 198 199 195 196 196 196 196 194 193 196 189 190 191 189 192 195 198 199 199 194 193 200 202 203 200 198 197 197 202 200 196 199 203 207 209 222 200 191 197 200 203 203 198 198 194 213 223 232 209 218 226 221 186 181 201 190 179 174 190 192 195 199 209 210 210
189 188 191 193 190 188 190 191 192 193 196 196 199 201 201 201 197 201 203 206 200 199 198 194 193 197 198 197 194 195 193 190 193 194 192 195 199 203 200 198 194 199 205 204 204 201 202 198 201 201 201 200 201 204 209 211 213 191 196 197 202 203 199 194 203 205 208 225 219 215 204 205 217 172 193 193 198 185 187 199 199 205 209 210 208
189 187 189 193 193 192 191 191 193 194 196 197 200 201 201 201 198 200 203 205 205 194 198 196 193 195 200 199 198 195 196 193 194 198 197 195 199 202 204 203 199 198 203 206 205 206 205 204 199 198 199 202 199 203 206 208 211 204 196 199 198 202 204 194 198 202 210 213 223 218 212 198 195 195 188 184 195 204 207 208 196 198 214 218 218
190 186 187 191 192 192 193 195 196 196 196 198 200 201 201 202 199 196 200 204 203 200 194 197 196 195 199 200 201 198 196 196 196 199 202 199 198 203 206 207 206 203 202 205 205 206 210 207 203 199 200 201 201 201 202 209 207 208 205 198 198 199 205 203 191 198 205 218 213 225 217 209 197 203 194 194 188 201 214 221 219 209 195 208 224
189 189 189 193 190 192 194 195 195 196 195 198 200 199 203 204 203 201 198 204 205 206 199 196 198 197 196 199 202 201 198 198 198 198 202 203 199 201 206 208 209 208 208 206 206 206 209 208 206 203 203 203 202 199 199 203 206 207 205 200 195 200 202 207 199 194 199 209 218 221 233 223 203 208 196 187 204 197 196 206 226 219 215 202 211
190 188 189 193 193 192 194 195 198 197 195 194 198 200 202 203 202 200 194 200 206 207 208 199 194 197 196 199 201 200 200 200 200 198 199 201 201 201 204 208 209 210 210 208 208 209 208 209 210 207 205 205 204 200 197 200 203 207 203 200 197 197 202 201 205 203 199 202 207 212 217 226 216 214 187 182 205 224 212 194 208 213 219 215 210
190 190 190 194 193 190 191 194 199 198 195 193 197 199 201 202 201 200 198 197 203 208 210 209 197 197 199 198 199 200 202 202 199 198 197 200 203 203 202 206 208 209 210 210 208 210 211 212 211 210 206 207 205 203 199 195 196 202 200 198 198 198 199 201 200 203 208 205 209 205 207 214 219 199 204 202 205 211 203 210 226 210 207 216 225
190 193 193 193 190 187 190 194 197 198 197 195 195 197 199 200 201 202 203 201 197 200 206 208 207 197 198 199 200 203 205 204 200 195 194 197 201 205 202 205 208 209 208 210 211 211 214 214 215 211 207 205 206 205 202 197 199 199 197 194 197 197 199 199 200 202 201 207 209 202 211 211 210 209 208 211 199 192 206 201 220 226 214 220 221
189 194 194 188 187 187 188 193 193 197 200 198 194 196 199 200 201 202 204 203 200 194 198 203 212 207 199 201 202 205 207 207 197 194 195 195 197 201 203 203 206 210 210 209 211 211 215 216 217 210 209 205 205 203 203 201 200 202 198 198 197 196 195 198 206 199 200 208 204 208 212 214 213 210 212 206 199 195 202 202 207 206 217 218 229
190 191 189 184 188 188 189 190 193 197 197 198 196 196 197 201 203 202 202 202 201 196 196 202 207 212 202 203 208 208 211 207 193 194 194 194 196 199 202 203 204 208 213 212 211 213 214 215 215 216 208 207 202 202 204 203 201 202 202 199 201 203 201 196 196 200 202 203 206 209 210 212 209 208 209 204 203 197 192 195 200 202 211 216 221
188 189 188 186 187 188 187 190 194 195 197 198 196 194 196 201 203 202 203 202 199 203 201 199 204 209 212 203 207 209 214 204 192 193 195 196 198 199 204 204 204 208 211 213 214 212 215 216 218 214 217 201 202 202 201 205 203 201 203 203 204 202 205 206 203 203 197 204 207 209 208 203 207 207 205 206 190 196 187 196 200 202 203 215 218
191 188 188 189 186 186 188 190 195 197 195 195 195 197 198 202 202 203 202 199 203 207 204 204 204 207 212 213 209 211 214 202 190 192 195 196 199 201 210 206 209 211 210 212 214 215 213 216 217 218 216 202 201 203 202 202 200 198 201 205 208 208 206 206 206 205 204 208 205 213 207 204 210 202 200 201 199 192 188 196 192 194 200 212 207
200 186 189 188 184 186 188 190 194 195 193 192 194 198 200 201 199 200 201 203 204 206 206 207 207 207 211 216 219 217 218 200 186 190 194 196 199 201 212 215 216 215 214 212 214 214 216 215 216 219 216 212 201 203 200 202 201 202 204 207 210 209 207 207 205 204 205 212 210 212 206 206 211 204 199 196 205 193 186 190 187 191 188 183 204
205 189 188 188 188 185 186 189 190 191 191 191 195 199 199 197 197 198 204 208 209 209 211 215 212 212 212 215 222 227 225 201 188 189 192 195 196 198 211 218 222 223 220 217 214 217 218 216 216 217 215 216 206 199 200 197 201 203 206 210 214 217 216 213 208 204 207 210 212 210 206 209 206 207 201 196 195 184 165 158 161 163 171 175 201
205 198 189 189 188 185 185 188 189 190 190 192 197 198 196 196 197 193 203 209 210 209 211 213 215 214 214 214 219 227 230 211 190 192 191 193 191 199 209 216 223 228 229 222 220 219 217 216 215 215 214 217 204 193 199 189 200 205 208 210 214 217 223 218 212 209 212 215 211 209 209 202 182 193 211 202 183 171 157 168 178 165 165 190 200
204 200 194 189 187 184 183 186 188 190 192 195 196 197 195 197 199 192 200 204 210 213 211 213 215 216 218 219 217 224 229 211 187 194 195 191 190 194 207 213 223 228 232 230 228 226 223 217 215 216 215 214 201 191 193 190 198 204 209 212 215 220 222 218 211 210 215 216 214 211 202 188 191 187 190 208 188 168 173 188 182 176 189 189 203
201 201 194 184 185 185 185 189 191 191 195 195 191 190 191 192 194 191 202 205 213 211 209 212 214 215 221 224 221 223 229 218 190 192 194 195 196 204 204 213 221 227 227 231 234 233 231 222 216 218 218 212 195 191 190 190 202 203 202 208 216 219 217 207 209 201 201 199 213 210 213 195 184 186 197 194 192 183 184 183 177 188 200 194 199
199 196 190 180 182 185 189 190 191 194 194 192 192 191 185 190 195 195 200 205 207 212 214 214 215 218 219 223 227 223 225 227 191 195 191 197 198 202 209 210 222 224 225 230 232 234 234 233 217 218 220 213 197 193 191 194 201 203 201 209 215 221 211 207 209 204 198 202 208 205 209 195 200 200 188 186 202 197 187 176 178 188 207 196 192
190 189 189 185 183 187 189 189 191 195 197 195 191 191 191 193 194 194 201 203 205 207 215 217 220 220 220 220 228 225 223 225 195 187 195 195 197 201 212 215 221 222 226 231 233 237 238 234 243 211 215 216 205 198 196 199 202 204 206 212 214 214 197 211 211 200 196 198 200 197 200 195 198 201 194 191 193 198 190 179 186 196 199 201 201
178 182 185 187 186 190 194 189 189 196 196 192 192 191 189 193 194 193 200 200 202 203 205 216 220 223 221 222 228 228 222 211 210 189 190 192 194 201 207 218 215 222 227 233 234 238 239 239 237 222 208 215 214 206 205 203 206 209 215 216 212 198 200 208 205 199 194 193 194 192 194 194 195 194 193 188 192 188 189 191 198 200 208 222 203
172 178 181 187 192 192 190 188 185 195 196 191 190 189 186 191 193 193 193 199 202 199 202 206 214 224 229 225 224 223 228 222 209 185 195 192 195 199 209 214 212 213 225 232 234 239 241 243 242 234 208 211 213 213 208 207 206 215 220 214 208 200 199 205 202 195 190 189 191 193 191 191 189 194 197 191 188 188 190 193 187 184 196 217 217
168 174 179 184 190 192 187 186 182 192 192 183 183 183 186 189 191 192 190 197 196 198 202 201 211 219 227 233 237 241 225 240 180 173 180 195 200 203 211 220 220 218 222 235 237 242 243 242 238 232 213 210 215 216 209 204 209 216 219 215 206 197 200 205 199 198 191 189 196 195 191 190 190 190 193 193 183 183 187 188 179 192 198 198 191
146 165 171 180 183 192 183 181 178 183 181 173 173 176 184 184 193 188 186 190 197 208 197 197 204 217 231 237 238 226 224 228 238 176 179 187 198 205 213 218 225 226 230 234 244 244 241 233 229 230 222 211 212 214 213 212 212 212 213 213 206 196 204 205 202 195 197 199 200 197 192 191 191 189 180 178 182 173 177 185 185 186 187 193 186
122 144 164 173 180 186 187 186 167 171 169 170 172 175 186 181 187 179 185 187 200 206 204 203 204 210 212 223 221 223 228 218 243 142 126 118 237 261 274 278 272 268 279 292 270 257 246 240 237 240 233 220 214 204 165 212 220 218 214 210 202 208 208 208 205 202 207 204 201 198 196 186 186 180 172 175 184 182 177 176 176 187 184 182 165
146 161 164 169 177 189 183 184 178 176 176 180 174 175 183 183 184 178 182 206 205 197 205 205 212 218 216 208 209 218 217 207 56 56 65 126 169 170 186 216 226 241 254 254 275 284 284 279 262 256 251 227 216 213 212 214 213 218 226 214 211 213 212 210 209 208 207 204 202 202 197 188 174 168 179 184 189 180 175 175 179 181 174 166 159
158 173 166 168 164 183 171 180 175 175 179 188 187 182 182 190 189 178 189 202 202 191 195 197 197 209 215 212 280 52 50 64 57 43 37 23 18 17 105 186 225 206 238 246 252 264 267 273 279 284 281 278 247 266 244 227 217 215 213 215 218 219 218 215 215 213 208 206 203 196 191 184 184 184 181 185 188 175 172 173 172 169 157 154 151
173 171 163 159 146 146 151 155 157 160 96 80 61 35 1 71 76 68 41 22 51 40 90 73 59 71 78 66 57 59 47 56 48 75 86 89 79 59 19 356 353 334 306 348 321 293 276 258 257 260 261 255 254 239 237 234 233 224 219 219 222 222 220 216 217 215 206 199 201 193 191 185 187 183 184 185 179 172 167 166 166 153 155 160 170
71 67 72 62 87 91 72 74 47 81 101 96 85 63 41 39 60 103 83 63 69 69 79 78 58 70 87 64 44 59 60 59 96 98 103 109 122 177 209 247 263 282 299 310 296 289 270 268 258 255 252 246 243 241 237 236 236 228 225 224 223 223 223 222 220 216 205 203 198 192 189 188 184 180 179 180 167 166 170 165 163 155 156 165 165
73 66 57 58 59 76 71 50 60 100 106 100 91 91 82 47 38 55 86 93 91 88 82 78 66 57 71 95 84 95 99 86 39 7 39 125 160 188 206 218 246 263 280 338 315 253 259 249 255 250 252 252 251 246 241 237 232 227 223 219 219 221 223 224 221 216 210 203 197 190 187 187 186 181 173 168 166 163 166 165 157 161 163 164 160
78 86 95 101 67 66 73 90 90 75 100 110 106 107 104 99 76 33 39 85 100 97 97 95 95 91 84 88 93 97 122 48 360 352 345 350 358 68 192 199 222 209 245 156 233 243 252 262 263 259 254 254 250 249 246 240 235 231 228 222 219 216 216 219 213 210 207 199 186 182 181 191 183 176 172 170 162 166 168 169 167 166 164 164 162
91 80 72 62 62 61 79 83 84 88 92 107 118 121 111 119 118 126 69 22 42 93 110 113 116 114 111 112 114 118 161 328 349 352 347 336 340 347 338 330 154 161 134 165 225 244 240 246 261 265 262 257 256 254 251 245 240 236 232 225 222 219 215 215 208 209 202 188 174 187 183 182 178 179 176 166 167 169 173 172 168 158 157 160 162
102 104 98 97 85 83 77 67 67 58 56 67 71 85 114 125 140 137 133 133 104 50 34 63 116 120 107 103 97 44 12 356 343 335 330 325 326 343 354 314 297 217 193 226 216 252 253 244 253 260 265 268 269 266 260 253 244 239 235 233 231 226 219 211 206 203 186 185 191 189 182 180 178 175 173 168 168 156 154 157 163 166 166 166 165
102 105 110 105 104 96 84 79 71 69 78 93 94 90 80 65 65 73 98 129 125 138 152 164 264 259 121 105 72 50 357 336 322 313 310 304 320 335 320 309 311 22 173 208 228 240 260 251 246 254 261 262 266 266 267 264 254 243 239 237 236 233 227 215 209 200 192 190 189 184 184 179 175 170 165 157 152 156 160 164 166 166 171 166 163
110 104 91 91 83 75 72 66 71 72 68 62 68 82 90 97 98 106 120 103 85 73 93 130 159 204 173 78 115 129 310 321 316 307 301 294 312 139 282 286 292 284 289 288 272 254 242 262 272 269 262 262 267 267 266 267 261 255 250 248 245 240 236 227 215 204 195 191 187 180 177 175 168 160 157 157 163 164 165 166 161 161 168 168 169
107 96 95 91 85 86 77 72 61 35 33 66 90 90 78 71 61 85 85 86 83 93 91 92 112 120 116 160 173 168 25 330 314 306 299 301 152 172 241 255 294 314 310 310 308 305 299 294 284 279 273 268 264 260 261 261 263 262 257 249 246 240 232 222 209 200 198 194 182 170 168 171 166 162 162 160 159 158 158 156 153 154 161 165 167
51 48 51 74 100 95 95 88 81 19 67 87 37 66 90 92 115 90 64 101 146 152 108 132 172 159 156 129 91 69 332 315 304 299 287 115 134 309 323 337 331 322 320 315 314 315 311 301 296 291 285 274 266 263 259 259 258 259 264 264 254 247 236 222 213 206 196 180 169 163 160 160 160 157 152 149 151 149 145 145 150 153 159 166 166
74 51 35 25 70 102 117 132 135 83 72 105 108 121 115 101 77 42 90 78 111 97 122 154 214 223 95 90 105 61 346 352 338 322 334 360 354 343 337 338 331 319 317 320 322 320 316 315 313 309 297 285 275 268 261 257 252 251 252 257 259 255 244 232 218 195 184 175 169 162 155 150 149 146 142 137 137 136 137 141 150 161 165 167 178
93 81 43 353 79 88 99 68 79 95 74 63 58 340 84 74 53 27 296 324 84 199 225 292 52 74 115 128 86 36 12 344 316 305 335 344 343 343 343 342 334 325 322 324 324 322 323 322 318 315 313 309 302 287 271 258 253 246 244 247 253 254 243 219 191 181 181 176 164 155 148 145 143 140 131 133 135 138 143 149 153 155 166 175 179
89 84 71 46 18 19 62 60 48 25 27 28 34 26 25 8 21 18 9 1 357 354 5 13 28 80 88 110 123 109 328 323 298 316 347 345 353 345 343 335 329 330 326 320 318 319 323 321 323 322 323 320 316 318 307 290 276 268 260 245 239 260 236 194 140 124 144 148 142 118 111 122 125 122 127 130 138 141 147 152 153 165 168 171 174
80 71 63 60 54 61 62 58 55 47 33 40 45 30 27 9 5 3 3 356 5 0 345 359 1 80 127 138 165 190 262 295 322 348 350 5 353 338 333 326 328 335 330 319 320 325 326 325 329 329 328 330 329 357 9 1 8 358 312 81 70 42 9 141 125 112 105 79 68 107 117 113 108 107 114 122 131 140 146 150 153 157 150 149 154
72 68 62 68 55 44 44 54 45 50 49 47 50 35 24 20 29 14 17 15 11 3 350 354 359 4 178 178 177 208 287 355 4 353 357 357 347 334 326 331 333 333 322 322 326 324 329 339 336 332 335 342 341 353 37 45 35 38 27 23 46 69 50 36 88 98 83 93 105 93 88 94 97 96 105 118 126 138 149 152 152 153 139 138 138
77 74 66 63 69 65 43 45 55 46 41 43 48 41 29 30 28 24 18 17 12 3 2 4 1 357 355 11 2 14 13 3 1 355 351 340 339 337 339 336 331 325 324 334 334 334 341 355 347 334 331 342 357 11 18 39 59 54 50 52 47 45 55 64 61 60 75 76 69 74 85 89 96 107 118 127 137 153 155 147 138 132 130 129 135
69 63 67 63 54 57 56 45 46 49 40 37 35 37 34 30 28 26 18 14 13 7 3 4 1 359 5 0 4 9 10 6 356 349 336 338 342 348 349 337 330 328 329 342 340 344 357 16 356 339 342 346 349 354 19 20 16 51 78 78 76 72 72 64 68 81 86 88 92 92 87 90 98 112 123 133 132 134 129 127 123 122 120 123 135
54 57 56 61 54 51 52 51 52 52 47 42 38 35 32 28 25 23 23 18 17 12 10 10 7 6 5 359 359 7 9 360 351 340 338 343 350 357 2 343 331 330 340 359 350 351 22 28 19 2 356 356 3 5 2 13 26 35 49 60 74 79 81 86 86 87 90 95 97 98 97 93 100 108 123 127 124 118 110 115 112 115 124 130 135
57 56 59 64 60 60 55 56 55 56 52 45 42 39 34 33 29 24 24 24 22 19 18 12 8 3 353 358 357 355 357 357 345 336 341 349 355 4 357 349 349 5 7 6 10 9 17 29 17 6 8 350 7 18 20 24 27 32 48 70 81 87 86 83 83 88 92 98 106 112 114 124 124 127 121 106 102 100 103 112 124 124 124 129 140
55 55 52 50 52 51 50 47 50 52 54 51 45 43 42 37 34 31 27 25 25 24 20 17 13 6 1 356 350 352 353 341 336 333 349 5 5 4 15 7 352 5 29 15 5 3 18 20 16 11 12 18 12 16 18 23 26 32 38 46 57 69 82 87 87 87 91 98 104 111 115 114 114 113 111 109 105 108 110 116 125 131 135 135 140
52 53 54 52 52 52 50 47 47 50 50 49 46 46 44 41 37 35 32 29 29 25 22 19 16 11 6 2 0 359 347 333 354 10 8 1 0 17 37 24 19 18 18 14 6 9 7 7 9 23 28 24 24 32 37 32 29 33 45 46 63 71 74 78 84 90 97 99 100 106 104 102 106 115 117 116 115 114 111 116 126 134 134 132 127
55 54 55 56 55 54 54 54 49 46 44 43 42 41 42 41 41 38 35 33 30 26 23 20 20 15 11 8 9 4 1 359 2 5 4 357 352 48 48 36 36 26 17 18 15 19 21 14 11 14 25 33 29 32 30 37 49 49 45 65 71 72 75 77 80 88 92 97 105 112 113 109 107 112 116 116 118 126 123 111 114 126 131 134 133
60 60 58 55 54 52 53 55 54 50 45 44 42 39 37 36 34 32 36 38 34 30 26 22 17 15 15 14 10 12 4 3 5 3 4 5 1 4 28 37 27 27 25 22 21 22 24 28 32 33 37 43 37 31 28 28 37 41 69 71 66 64 61 64 69 67 71 73 85 90 100 109 113 114 115 111 104 107 115 112 103 110 115 122 123